Raton, NM

9:58 PM MST on December 10, 2017 (GMT -0700)
Raton Municipal-Crews

Weather History for KRTN - November, 2013

Change the Weather History Date:

Thursday, November 7, 2013

  Actual Average (KTAD) Record (KTAD)
Temperature  
Mean Temperature 40 °F -  
Max Temperature 60 °F 60 °F 80 °F (1975)
Min Temperature 21 °F 30 °F 12 °F (1955)
Degree Days  
Heating Degree Days 24    
Moisture  
Dew Point 15 °F    
Average Humidity 41    
Maximum Humidity 68    
Minimum Humidity 19    
Precipitation  
Precipitation 0.00 in - - ()
Sea Level Pressure  
Sea Level Pressure 30.33 in    
Wind  
Wind Speed 6 mph (SSE)    
Max Wind Speed 15 mph    
Max Gust Speed 18 mph    
Visibility 10 miles    
Events      
Averages and records for this station are not official NWS values.
T = Trace of Precipitation, MM = Missing Value Source: NWS Daily Summary

Daily Weather History Graph

Daily Weather History Graph

Search for Another Location

Airport or City:

Trip Planner

Search our weather history database for the weather conditions in past years. The results will help you decide how hot, cold, wet, or windy it might be!

Date:

Astronomy

Nov. 07, 2013 Rise Set
Actual Time 6:28 AM MST 4:54 PM MST
Civil Twilight 6:00 AM MST 5:21 PM MST
Nautical Twilight 5:30 AM MST 5:52 PM MST
Astronomical Twilight 4:59 AM MST 6:23 PM MST
Moon 10:37 AM MST (11/7) 9:10 PM MST (11/7)
Length of Visible Light 11h 21m
Length of Day
10h 26m
Waxing Crescent, 23% of the Moon is Illuminated
Nov 7
Waxing Crescent
Nov 9
First Quarter
Nov 17
Full
Nov 25
Last Quarter
Dec 2
New

Hourly Weather History & Observations

Time (MST) Temp. Windchill Dew Point Humidity Pressure Visibility Wind Dir Wind Speed Gust Speed Precip Events Conditions
12:53 AM 26.1 °F 20.5 °F 12.9 °F 58% 30.36 in 10.0 mi NNE 4.6 mph - N/A   Clear
1:53 AM 26.1 °F - 12.9 °F 58% 30.36 in 10.0 mi Calm Calm - N/A   Clear
2:53 AM 25.0 °F 17.1 °F 12.9 °F 60% 30.38 in 10.0 mi NE 6.9 mph - N/A   Clear
3:53 AM 23.0 °F 14.7 °F 12.9 °F 65% 30.38 in 10.0 mi ENE 6.9 mph - N/A   Clear
4:53 AM 25.0 °F 16.3 °F 14.0 °F 63% 30.41 in 10.0 mi ENE 8.1 mph - N/A   Clear
5:53 AM 21.9 °F 13.4 °F 12.9 °F 68% 30.46 in 10.0 mi NE 6.9 mph - N/A   Clear
6:53 AM 26.1 °F 18.4 °F 14.0 °F 60% 30.46 in 10.0 mi NE 6.9 mph - N/A   Clear
7:53 AM 30.9 °F 24.3 °F 16.0 °F 54% 30.48 in 10.0 mi NE 6.9 mph - N/A   Clear
8:53 AM 43.0 °F 40.3 °F 17.1 °F 35% 30.44 in 10.0 mi NE 4.6 mph - N/A   Clear
9:53 AM 48.0 °F - 12.9 °F 24% 30.43 in 10.0 mi Variable 4.6 mph - N/A   Clear
10:53 AM 52.0 °F - 14.0 °F 22% 30.40 in 10.0 mi South 9.2 mph - N/A   Clear
11:53 AM 54.0 °F - 12.9 °F 20% 30.35 in 10.0 mi South 6.9 mph - N/A   Clear
12:53 PM 57.0 °F - 15.1 °F 19% 30.30 in 10.0 mi SSW 8.1 mph - N/A   Clear
1:53 PM 57.9 °F - 15.1 °F 19% 30.27 in 10.0 mi SSW 10.4 mph - N/A   Clear
2:53 PM 60.1 °F - 17.1 °F 19% 30.23 in 10.0 mi South 15.0 mph 18.4 mph N/A   Clear
3:53 PM 57.0 °F - 16.0 °F 20% 30.24 in 10.0 mi South 12.7 mph - N/A   Clear
4:53 PM 51.1 °F - 15.1 °F 24% 30.25 in 10.0 mi South 9.2 mph - N/A   Clear
5:53 PM 48.0 °F - 15.1 °F 27% 30.28 in 10.0 mi SSW 6.9 mph - N/A   Clear
6:53 PM 44.1 °F 39.5 °F 15.1 °F 31% 30.29 in 10.0 mi WSW 8.1 mph - N/A   Clear
7:53 PM 42.1 °F 38.4 °F 15.1 °F 34% 30.26 in 10.0 mi SSW 5.8 mph - N/A   Clear
8:53 PM 39.9 °F 37.8 °F 16.0 °F 38% 30.22 in 10.0 mi West 3.5 mph - N/A   Clear
9:53 PM 36.0 °F - 17.1 °F 46% 30.21 in 10.0 mi Calm Calm - N/A   Clear
10:53 PM 32.0 °F 26.4 °F 17.1 °F 54% 30.19 in 10.0 mi North 5.8 mph - N/A   Clear
11:53 PM 30.9 °F 24.3 °F 17.1 °F 57% 30.16 in 10.0 mi NNW 6.9 mph - N/A   Clear